This is the latest recevied weather packets stored in our database for station/object SV4JYD-14. If no packets are shown the sender has not sent any weather packets the latest 1 day(s).
| Time | Temp. | Humidity | Pressure | Rain* | Wind** | Luminosity | Snow |
|---|---|---|---|---|---|---|---|
| 1777988804 | 21.11° C | 43% | 1015 hPa | 0 mm | 2.24 m/s, 70° | - | - |
| 1777987903 | 21.11° C | 38% | 1015 hPa | 0 mm | 1.34 m/s, 0° | - | - |
| 1777987003 | 21.11° C | 37% | 1016 hPa | 0 mm | 1.34 m/s, 0° | - | - |
| 1777986103 | 20.56° C | 41% | 1016 hPa | 0 mm | 1.34 m/s, 0° | - | - |
| 1777985203 | 20° C | 38% | 1016 hPa | 0 mm | 1.34 m/s, 0° | - | - |
| 1777984302 | 21.11° C | 37% | 1016 hPa | 0 mm | 1.34 m/s, 0° | - | - |
| 1777983402 | 20.56° C | 33% | 1016 hPa | 0 mm | 1.34 m/s, 0° | - | - |
| 1777982502 | 21.11° C | 33% | 1016 hPa | 0 mm | 1.79 m/s, 10° | - | - |
| 1777981602 | 21.11° C | 33% | 1016 hPa | 0 mm | 1.79 m/s, 10° | - | - |
| 1777980701 | 20.56° C | 31% | 1016 hPa | 0 mm | 2.24 m/s, 350° | - | - |
| 1777979801 | 20.56° C | 30% | 1017 hPa | 0 mm | 2.24 m/s, 350° | - | - |
| 1777978901 | 20.56° C | 29% | 1016 hPa | 0 mm | 2.24 m/s, 320° | - | - |
| 1777978000 | 20.56° C | 30% | 1016 hPa | 0 mm | 2.24 m/s, 320° | - | - |
| 1777977100 | 20° C | 29% | 1016 hPa | 0 mm | 2.24 m/s, 320° | - | - |
| 1777976200 | 20° C | 30% | 1017 hPa | 0 mm | 2.24 m/s, 320° | - | - |
| 1777975299 | 20° C | 30% | 1017 hPa | 0 mm | 2.68 m/s, 340° | - | - |
| 1777974399 | 19.44° C | 32% | 1017 hPa | 0 mm | 2.68 m/s, 340° | - | - |
| 1777973499 | 19.44° C | 37% | 1017 hPa | 0 mm | 2.68 m/s, 330° | - | - |
| 1777972599 | 18.89° C | 38% | 1017 hPa | 0 mm | 2.68 m/s, 330° | - | - |
| 1777971699 | 18.33° C | 45% | 1017 hPa | 0 mm | 1.79 m/s, 360° | - | - |
| 1777970798 | 17.78° C | 52% | 1017 hPa | 0 mm | 1.34 m/s, 0° | - | - |
| 1777969898 | 16.67° C | 59% | 1017 hPa | 0 mm | 1.34 m/s, 0° | - | - |
| 1777968998 | 16.11° C | 65% | 1017 hPa | 0 mm | 1.34 m/s, 0° | - | - |
| 1777968098 | 16.67° C | 65% | 1017 hPa | 0 mm | 1.34 m/s, 0° | - | - |
| 1777967197 | 16.11° C | 66% | 1017 hPa | 0 mm | 1.34 m/s, 0° | - | - |
* Rain latest hour (hover to see other rain measurements)
** Current wind speed in m/s (hover to see current wind gust speed)